RH
31 31 30 28 24 24 26 28 31 33 34 35 36 38 39 39 39 38 39 38 37 39 41 42 44 44 43 42 41 40 39 38 38 37 37 38 38 39 38 37 36 35 35 34 33 34 34 34 35 36 36 36 35 34 33 32 31 30 30 31 32 34 36 38 38 34 31 31 31 32 33 33 33 31 28 25 24 23 24 25 25 25 24 24 25 27 27
32 32 32 31 28 26 25 26 28 30 33 35 36 38 40 40 40 40 40 39 37 38 39 41 42 42 42 41 41 41 40 39 38 38 38 38 39 39 38 36 35 34 33 33 32 32 33 33 34 34 35 34 33 33 32 31 31 30 30 31 32 34 34 35 37 37 37 37 37 37 34 31 30 28 26 24 23 23 22 23 25 25 25 24 25 27 28
34 34 34 34 32 30 28 26 26 28 31 34 36 38 40 41 42 41 40 39 37 38 39 41 42 42 42 41 41 41 41 40 40 39 38 39 39 38 37 35 34 33 33 32 32 31 31 32 33 33 33 33 32 32 32 32 32 32 32 32 32 32 31 30 31 33 34 33 33 32 30 28 26 25 24 24 24 23 22 23 24 25 25 26 26 27 28
36 36 37 37 36 35 33 30 29 28 30 33 36 39 40 42 43 43 42 40 37 38 39 40 42 42 42 42 41 41 41 41 41 40 40 39 38 37 36 34 33 32 32 32 32 31 31 32 32 33 33 32 32 33 33 34 34 34 35 35 34 32 31 30 29 30 30 28 26 26 26 26 24 23 23 24 24 24 23 23 23 24 26 27 27 27 28
37 38 38 39 39 39 37 36 34 32 32 33 36 39 40 42 43 44 43 41 39 39 39 40 40 40 40 40 40 41 42 42 41 40 40 38 37 36 34 33 32 32 32 32 32 32 32 32 33 33 33 33 34 34 35 36 36 37 38 37 35 33 33 33 31 30 30 29 27 25 25 25 23 23 23 24 25 25 24 23 23 25 26 27 27 28 27
37 38 39 40 41 42 41 41 39 37 35 34 36 39 41 42 43 44 43 42 40 39 39 39 39 38 38 39 40 41 41 41 40 39 39 38 37 36 35 34 33 33 33 33 34 35 35 35 35 35 35 35 36 37 37 38 39 39 38 35 34 34 36 38 36 31 30 29 27 25 24 24 24 23 24 24 24 25 25 24 23 25 27 27 27 28 28
36 38 39 40 41 42 43 44 43 42 40 37 37 38 39 41 43 43 43 43 42 40 39 39 38 37 38 38 39 41 40 40 39 38 38 38 37 36 36 36 35 35 35 36 38 39 39 39 39 38 38 38 39 40 40 40 40 38 36 34 34 35 37 38 39 35 32 31 28 24 23 24 25 25 25 24 23 24 24 23 24 25 26 27 27 27 28
33 36 38 39 41 41 43 44 45 45 44 42 40 38 38 39 40 41 43 42 42 41 39 38 37 37 37 39 40 40 40 40 39 38 38 38 37 36 37 37 37 37 38 39 41 42 41 42 42 40 41 41 42 42 42 41 39 37 35 34 33 35 35 36 38 38 35 32 30 25 22 23 25 26 25 24 23 24 23 23 24 25 26 27 27 27 27
32 34 36 37 39 40 41 43 44 45 46 45 44 42 40 40 40 39 40 40 40 40 39 38 37 36 37 39 40 40 41 42 41 39 39 38 38 38 38 38 38 39 40 42 43 43 42 44 44 43 43 44 43 44 42 41 39 36 36 35 33 34 34 33 35 36 34 32 31 28 23 23 25 26 25 25 24 23 24 24 24 25 26 27 26 26 27
33 34 35 36 38 39 39 41 42 43 45 45 46 45 44 43 42 41 40 40 39 38 38 38 37 38 38 39 40 41 42 41 41 40 39 38 40 41 40 41 41 42 43 44 44 44 44 45 45 45 45 45 44 43 42 40 39 37 36 35 34 33 33 32 32 32 31 29 29 28 25 23 24 26 25 24 23 23 24 24 24 25 26 26 26 26 27
33 34 36 37 38 38 39 40 40 40 42 43 44 46 46 45 45 44 43 42 41 40 39 39 39 40 40 40 42 43 43 43 42 41 41 41 42 44 45 45 46 46 47 47 47 47 47 47 47 46 47 46 44 43 42 40 39 37 36 36 34 33 32 30 28 28 28 28 28 29 28 24 23 25 25 23 22 23 24 24 24 25 26 26 27 26 26
33 34 36 36 38 39 40 41 40 40 40 40 41 43 44 45 46 46 45 44 45 43 42 42 41 41 41 42 43 44 44 45 44 43 44 45 47 49 49 50 51 51 50 50 51 51 51 50 50 49 48 47 46 44 42 41 39 38 37 36 34 33 31 29 27 26 26 28 28 29 30 26 24 24 24 23 22 22 23 25 25 25 26 26 26 26 26
31 34 36 37 38 38 39 41 42 42 41 40 40 40 41 42 43 44 44 44 45 45 45 46 45 45 45 44 45 45 45 46 45 45 46 47 49 51 51 52 54 53 53 53 53 54 54 53 52 50 49 48 47 45 43 42 40 38 37 35 34 32 30 28 27 26 26 27 27 27 28 27 25 25 24 23 22 22 23 24 25 25 26 26 26 26 26
28 30 32 35 38 38 39 40 40 42 43 42 41 40 40 40 40 41 42 42 43 44 44 46 47 48 49 48 48 48 47 47 47 47 47 48 48 50 50 51 52 52 52 53 53 53 53 53 52 51 49 47 46 46 44 42 39 37 36 35 34 33 31 29 27 25 24 25 26 26 27 26 25 25 25 23 21 21 22 24 25 25 25 26 26 26 26
24 26 27 30 33 35 38 40 40 41 41 41 42 41 41 41 40 40 40 39 40 41 41 43 44 46 48 49 49 50 50 50 50 49 49 49 48 49 49 49 50 50 50 50 51 50 50 50 49 49 49 47 45 44 43 42 40 38 37 36 35 33 31 28 26 23 22 23 24 25 26 26 25 24 24 23 21 21 22 23 24 25 25 26 26 25 25
30 25 24 25 27 29 31 34 37 39 40 40 41 41 41 41 40 40 39 39 39 39 38 39 40 40 42 44 45 48 49 50 50 51 51 50 49 49 49 48 48 48 48 47 47 47 47 46 45 44 45 43 42 41 42 42 41 40 38 37 35 34 31 27 25 23 22 22 23 24 25 24 24 24 24 23 22 22 22 23 24 25 25 25 25 24 24
62 46 34 27 24 24 26 27 29 31 34 36 37 38 39 39 40 39 39 39 38 38 37 37 37 37 38 38 40 41 42 43 45 47 48 48 47 47 46 45 44 44 43 43 42 41 40 39 38 38 38 38 38 38 40 41 42 41 40 38 36 35 33 29 25 23 22 22 22 24 24 23 23 23 23 23 22 22 23 23 23 24 25 25 24 23 23
96 86 71 54 39 29 25 24 25 26 27 28 30 33 34 35 36 37 38 39 39 38 37 36 37 37 36 36 36 36 37 38 39 40 41 41 41 41 41 40 40 39 38 38 37 37 36 36 35 35 37 37 37 38 38 39 40 40 39 37 36 36 35 31 26 23 22 21 22 23 24 23 22 23 23 23 23 22 23 23 23 24 24 24 23 23 24
101 101 99 92 78 61 44 32 26 24 25 25 25 26 27 29 31 32 33 35 36 37 36 35 36 36 35 35 35 35 35 35 35 36 37 37 36 36 36 36 36 36 35 35 35 35 35 35 34 34 35 36 35 36 36 37 37 38 37 36 35 35 34 30 26 22 21 21 21 22 22 22 22 22 22 23 23 23 23 24 24 24 24 24 24 25 28
100 99 100 101 100 96 84 68 51 37 29 25 25 25 25 25 26 27 28 29 30 32 32 32 34 35 34 35 35 35 35 35 35 35 35 35 34 34 34 34 33 33 33 33 33 32 32 33 32 31 32 33 32 33 34 34 36 36 35 34 34 34 32 28 24 22 21 21 21 21 21 20 21 22 23 24 24 24 24 24 24 24 24 25 27 31 37
96 99 100 99 99 101 101 98 90 75 59 43 33 28 26 24 24 24 25 25 26 27 27 28 29 30 31 32 33 33 34 34 35 35 35 35 34 34 34 33 32 32 32 31 31 30 30 30 30 30 30 30 30 31 31 32 33 33 32 33 34 34 32 28 25 23 21 21 21 20 20 20 21 22 24 24 24 24 24 24 24 24 25 28 34 40 48
85 89 94 98 99 99 99 101 101 99 93 81 65 52 42 32 26 24 24 24 24 24 25 25 26 26 27 28 29 29 30 31 32 33 34 35 35 35 35 35 34 34 33 32 32 31 30 29 29 29 30 30 29 30 29 29 31 31 30 31 33 33 31 27 24 23 22 21 21 20 20 21 22 24 25 25 25 25 24 24 24 25 29 36 44 52 60
78 79 82 86 91 96 99 101 102 102 102 100 94 85 74 58 44 33 28 26 24 23 23 24 24 24 25 25 26 27 27 27 28 29 29 31 32 32 33 33 34 33 33 32 32 31 30 30 30 29 30 29 29 29 29 29 30 30 29 30 32 30 28 25 23 22 22 21 21 20 20 22 24 25 26 25 24 24 24 25 27 32 39 48 56 63 70
70 72 73 75 78 82 88 94 101 104 104 104 102 100 95 87 75 60 49 41 33 26 24 23 23 23 23 23 24 25 25 25 26 26 26 27 28 28 28 29 29 29 30 30 29 29 29 29 28 28 29 29 28 28 28 28 29 28 28 29 29 27 24 22 21 21 21 21 21 21 22 24 26 26 25 25 24 24 26 28 34 41 51 60 68 73 78
60 62 64 67 69 71 73 78 85 92 98 103 105 103 100 97 93 86 77 67 55 44 36 31 27 24 23 23 23 22 23 23 23 24 24 24 25 25 25 25 25 26 26 26 25 26 26 26 26 27 27 26 25 26 26 25 25 26 25 26 27 24 22 21 20 20 21 22 22 22 23 25 26 25 24 23 23 26 33 39 45 53 62 70 76 79 84
49 51 53 56 59 62 64 67 69 74 81 88 93 97 97 96 97 95 89 83 77 69 59 53 47 36 29 27 25 23 23 23 22 23 23 22 23 24 23 23 24 24 24 23 24 24 24 24 24 24 23 24 24 23 23 23 23 23 23 25 26 24 21 20 20 21 22 23 23 23 23 26 27 26 25 25 25 32 44 53 59 64 70 77 82 84 87
39 41 43 45 48 51 54 58 60 62 66 70 76 81 85 88 91 92 89 87 87 83 77 76 73 61 50 46 39 30 27 25 23 23 23 22 22 22 22 22 23 22 22 22 22 22 22 22 22 22 22 22 21 21 22 22 21 22 23 26 29 27 24 21 20 21 23 24 23 23 22 24 27 28 30 30 30 39 53 63 66 69 74 80 84 87 90
31 32 34 35 36 39 42 46 50 52 54 57 61 65 70 76 80 84 85 86 86 84 81 83 84 79 76 74 64 52 45 39 33 29 26 24 23 22 22 22 22 21 22 22 21 22 22 21 21 22 21 20 21 22 22 21 22 24 26 28 30 29 26 24 22 22 23 23 23 22 22 23 26 30 34 36 35 43 57 66 67 71 77 82 85 87 91
26 26 27 28 28 29 30 33 37 40 43 46 48 50 55 60 65 71 76 78 80 80 79 80 82 84 87 90 86 79 73 65 56 49 41 34 29 25 23 22 21 21 21 21 21 22 22 21 22 22 21 21 22 21 21 24 25 24 27 32 31 27 26 25 23 23 23 23 22 21 23 26 29 33 41 44 40 44 56 64 67 72 78 83 84 85 89
21 21 22 23 23 23 23 23 25 28 31 34 36 38 41 44 49 54 60 64 69 72 74 77 81 81 82 86 91 93 90 85 80 74 65 56 47 38 31 27 24 22 21 21 20 21 21 21 22 21 21 21 20 20 24 25 22 29 47 56 46 34 33 32 28 25 25 25 24 25 28 32 33 38 47 49 43 43 53 61 66 71 77 83 84 83 84
17 17 18 18 18 18 17 17 17 19 22 24 26 28 30 32 35 39 43 48 53 57 61 67 73 76 78 82 86 89 91 91 89 85 78 72 65 57 51 45 39 33 29 25 22 21 21 21 20 20 21 20 19 20 23 25 36 63 89 88 69 59 61 58 48 38 33 31 33 38 45 48 46 46 52 53 48 48 53 60 66 70 76 82 83 79 79
15 16 16 16 16 15 13 12 12 13 14 16 18 20 21 22 24 27 30 34 37 41 46 51 57 64 71 76 80 83 84 85 85 83 80 76 71 67 64 60 55 50 45 41 37 34 31 29 27 25 24 23 23 24 28 45 76 102 105 90 81 86 90 81 67 54 46 43 44 48 56 63 63 62 61 58 55 54 56 61 67 70 74 79 79 76 77
15 16 16 17 17 16 13 11 10 9 10 11 12 13 15 16 17 18 20 22 25 28 32 36 41 48 54 60 68 74 77 77 77 76 75 72 68 66 63 60 59 57 55 54 53 48 46 47 45 40 37 38 37 36 47 77 107 116 104 94 97 101 97 90 82 69 58 54 53 52 55 61 67 70 69 64 60 57 58 62 67 69 74 79 79 77 79
15 15 16 18 20 19 16 12 9 8 8 8 9 10 11 11 12 12 13 15 16 18 21 24 29 33 38 44 51 57 63 68 68 69 70 68 65 63 62 58 57 57 56 55 54 53 54 57 55 51 52 53 50 54 73 99 114 113 108 108 110 104 97 93 89 79 69 64 61 58 55 55 60 67 71 69 65 62 62 64 67 69 73 78 79 80 84
15 16 17 20 23 24 20 15 11 8 7 7 8 9 10 10 10 9 9 10 11 12 13 15 18 21 25 30 35 40 45 51 53 56 61 63 62 63 63 59 58 57 54 51 52 55 57 55 52 53 56 57 60 74 96 110 112 110 111 112 110 106 100 92 85 81 77 72 68 65 61 57 58 63 67 69 68 67 67 69 69 69 73 78 80 84 90
15 16 18 21 25 27 24 18 13 10 8 7 8 9 10 10 10 9 9 8 8 9 9 10 11 13 15 18 23 26 30 35 38 40 43 47 50 53 56 59 61 60 56 55 58 60 58 53 51 53 55 59 71 91 107 111 111 112 114 110 103 98 93 86 80 80 81 81 78 73 66 61 60 61 64 68 71 72 72 73 73 72 73 76 80 85 91
14 16 18 22 25 27 26 21 16 12 10 8 8 9 10 11 11 11 10 9 8 8 8 8 8 9 10 11 13 15 18 22 26 28 30 33 36 38 41 46 51 52 54 60 64 65 61 58 56 57 59 65 81 98 106 109 113 115 112 106 99 93 88 84 80 80 82 85 86 82 76 71 65 61 63 68 72 75 77 77 76 76 75 75 78 83 88
13 15 18 21 24 28 28 24 19 16 13 10 10 10 11 12 13 13 12 12 10 9 8 8 8 8 8 8 8 9 11 13 15 19 21 23 25 27 29 32 35 37 42 50 54 57 59 59 59 61 64 72 85 97 102 106 111 110 105 100 95 92 90 88 87 86 86 87 88 90 92 91 84 75 72 72 73 77 80 80 79 77 75 75 76 78 81
13 14 16 19 22 26 29 27 24 20 17 14 13 12 13 14 15 14 14 13 13 11 10 9 9 8 8 8 6 6 7 8 9 12 13 15 17 19 20 23 25 26 30 35 39 42 46 49 50 54 60 71 86 99 104 105 104 100 96 93 90 88 89 90 90 90 88 87 86 87 90 93 94 91 87 83 80 79 78 78 78 76 74 75 75 75 76
13 13 15 18 21 24 28 30 28 25 22 19 17 15 15 15 15 15 14 14 13 13 11 10 10 9 8 8 7 6 6 6 7 7 8 9 10 11 13 16 18 18 22 26 29 31 35 38 40 45 53 66 83 96 101 100 97 93 91 89 87 85 86 86 86 86 86 86 87 86 86 88 92 94 93 93 93 90 85 82 81 80 79 78 76 73 72
14 13 14 16 19 24 28 30 29 27 25 23 21 19 18 16 15 15 14 13 13 13 12 11 11 10 9 8 8 7 6 6 6 6 6 6 6 7 8 9 10 11 15 18 20 23 26 30 34 40 48 59 72 82 86 87 86 84 83 82 81 81 80 79 79 80 82 82 84 85 86 85 86 86 86 88 92 94 92 88 85 83 81 78 74 69 66
15 13 13 15 18 23 27 29 29 28 27 26 24 22 20 18 16 14 14 13 12 12 12 11 11 11 10 9 8 7 6 6 6 6 5 5 5 5 6 6 6 7 9 10 12 15 18 21 26 33 41 48 55 62 66 67 68 69 70 71 72 71 69 68 69 71 72 72 74 77 77 76 75 73 72 72 73 77 79 80 79 79 79 77 74 71 67
15 13 14 15 17 22 26 28 28 28 28 27 25 22 20 18 16 15 14 13 12 11 11 11 11 11 11 10 10 8 7 7 6 6 5 5 5 5 5 5 5 5 5 6 8 10 12 15 20 27 34 40 44 45 46 47 49 52 55 56 56 56 57 57 59 60 60 61 62 64 65 65 64 63 63 62 63 65 67 68 69 70 71 71 71 71 69
18 15 14 15 17 21 25 27 27 26 26 25 24 22 21 19 17 15 14 13 12 12 11 10 10 11 10 10 10 10 9 7 7 6 6 5 5 5 5 5 5 5 5 5 6 7 8 12 17 23 30 35 36 34 32 32 33 35 37 38 39 42 44 45 47 48 49 50 50 51 52 52 52 52 53 54 54 55 57 58 59 60 60 60 60 59 58
20 17 15 15 17 19 22 26 27 25 23 22 22 22 21 19 17 16 15 14 13 12 11 11 11 11 10 10 10 10 9 9 8 8 7 6 5 5 5 5 5 5 6 6 7 8 9 12 16 22 28 30 27 23 22 22 22 23 24 25 26 28 30 31 32 34 35 36 37 37 37 38 38 38 38 39 39 40 41 42 42 43 44 44 43 43 42
22 18 15 15 16 18 20 23 25 25 23 21 20 20 20 19 18 17 15 14 13 12 12 11 11 11 11 10 10 10 9 9 9 8 7 7 6 5 5 5 5 5 6 6 7 9 12 15 19 23 23 21 18 15 14 15 15 16 17 17 18 19 20 22 23 23 23 24 26 27 28 29 30 30 31 32 33 33 32 31 31 30 30 31 32 32 32
22 17 14 14 15 17 20 22 23 24 24 22 20 19 18 18 18 17 15 14 13 13 12 12 11 12 12 11 11 10 10 9 9 8 8 7 6 6 5 5 5 5 6 7 8 10 14 17 18 18 16 14 13 12 12 11 11 11 11 12 13 14 15 16 17 18 19 20 20 21 23 24 25 27 28 29 30 31 31 29 27 26 26 26 28 29 30
19 14 13 14 15 16 18 19 20 22 23 23 22 20 18 17 16 16 15 14 13 13 12 12 12 12 12 12 11 11 11 10 9 9 8 7 7 6 6 5 5 6 7 9 12 14 15 15 13 12 11 11 11 11 10 10 9 9 9 9 9 10 11 11 12 13 14 14 15 16 18 18 19 20 21 22 23 24 25 24 23 23 23 23 24 26 27
16 12 12 12 14 15 15 16 17 19 20 21 22 21 19 17 16 15 14 13 13 12 12 12 12 12 11 11 11 11 11 11 10 10 8 8 7 7 6 6 6 7 10 14 16 15 13 11 10 10 10 10 9 9 9 9 9 9 9 9 9 9 9 9 9 9 9 9 10 11 11 11 12 12 12 13 13 13 13 14 14 15 15 15 16 18 19
13 11 11 12 12 12 13 13 14 15 16 18 19 19 18 18 17 16 15 14 12 12 12 11 11 11 11 10 10 10 10 10 10 10 9 9 9 8 8 7 7 9 13 15 14 12 10 9 10 10 9 9 9 9 9 9 9 9 9 9 8 8 8 8 8 8 8 8 9 9 8 8 8 7 7 7 7 7 7 8 9 10 10 10 11 11 12
12 11 12 13 12 11 11 12 12 13 13 14 15 15 16 16 16 17 16 16 14 13 12 11 10 10 10 9 9 9 9 9 9 9 9 10 11 11 10 9 10 12 13 12 10 9 8 8 9 8 8 8 9 9 9 9 8 8 8 8 7 8 8 8 8 8 8 8 8 8 8 7 7 6 6 6 5 5 6 7 7 9 10 10 10 11 12
10 11 11 11 11 11 11 11 11 12 12 12 13 13 14 14 14 15 15 15 15 15 13 11 10 9 8 8 8 8 8 8 8 9 9 10 11 11 11 10 10 11 11 10 9 8 8 7 7 8 8 8 8 8 8 8 7 7 7 7 7 7 8 7 7 8 7 7 7 7 6 6 6 6 6 5 5 5 6 5 6 9 10 10 11 12 13
Wind_Speed
27 27 28 29 31 32 32 33 33 32 32 32 32 32 32 32 31 30 29 29 28 28 28 28 27 27 26 26 26 26 26 26 27 27 27 27 27 27 28 28 28 29 31 32 32 33 33 33 33 34 36 37 38 39 40 41 42 43 44 45 46 47 48 50 53 56 57 58 59 60 60 61 63 65 67 68 70 71 73 76 80 83 84 81 80 83 86
29 29 29 30 31 32 33 33 34 34 34 34 34 34 34 34 33 33 32 31 30 29 29 29 29 29 28 28 28 29 29 29 29 29 29 30 30 30 30 30 31 32 33 34 35 35 35 35 36 37 38 39 40 41 42 43 44 45 46 47 47 48 49 49 51 54 56 57 58 60 62 63 64 67 69 71 72 73 73 74 78 82 83 82 80 80 84
31 31 31 31 31 32 33 34 34 35 35 35 36 36 36 36 36 35 35 34 33 32 31 31 31 31 31 31 31 31 31 32 32 32 32 32 32 32 32 33 34 35 36 37 37 37 38 38 39 39 40 41 42 43 44 45 46 47 48 49 50 50 51 51 52 53 55 56 57 59 61 64 66 68 70 73 75 76 74 74 77 80 82 83 82 80 81
34 34 33 33 33 34 34 35 35 35 36 37 37 38 38 39 39 38 37 37 36 35 34 34 34 33 33 34 34 34 34 34 34 34 34 35 35 35 35 36 36 37 38 39 39 40 40 40 41 42 42 43 44 45 45 46 47 48 49 51 52 53 54 55 55 56 58 59 59 61 63 65 67 69 71 75 77 79 78 77 78 79 80 82 83 83 82
37 37 36 35 35 36 36 36 36 37 37 38 39 40 40 40 41 41 41 40 39 38 38 37 37 36 36 36 36 36 36 37 37 37 37 37 37 38 38 38 39 40 40 41 41 42 42 43 43 44 44 45 46 46 47 48 49 50 51 52 53 55 57 59 60 59 61 62 63 64 65 68 70 71 73 76 79 81 82 80 79 80 80 80 82 84 84
40 39 39 38 38 38 38 38 38 38 39 39 40 41 42 42 42 43 43 43 43 42 41 41 40 40 39 39 39 39 39 39 39 39 39 40 40 40 41 41 42 42 43 43 44 44 44 45 46 46 46 47 47 48 49 49 50 51 52 53 54 56 57 60 63 64 64 65 67 67 68 70 73 74 76 77 79 82 83 81 79 80 82 82 82 84 86
43 42 42 41 40 40 40 40 40 41 41 41 41 42 43 43 44 44 44 45 45 45 45 44 44 43 43 43 42 42 42 42 42 42 42 42 43 43 43 44 44 44 45 45 45 46 46 47 47 48 48 48 49 50 50 51 52 53 54 54 55 57 58 59 63 66 67 68 71 71 70 72 75 77 77 78 79 81 83 81 79 80 83 83 82 83 85
45 45 44 44 43 42 42 42 42 43 43 43 43 44 44 45 45 46 46 47 47 47 47 48 47 47 46 46 46 45 45 45 45 45 45 45 45 45 45 46 46 47 47 47 47 48 48 48 49 49 50 50 51 52 53 53 54 55 56 57 57 58 59 59 62 65 68 69 72 74 73 73 75 78 79 79 80 81 84 83 80 80 82 84 83 82 83
48 47 47 46 46 45 45 44 44 44 45 45 45 45 46 46 47 47 47 48 49 49 49 50 50 49 49 48 48 48 48 48 48 47 47 47 48 48 48 48 48 48 49 49 49 49 50 50 51 51 52 52 53 54 55 56 57 58 58 60 60 60 61 61 62 65 68 69 72 75 76 74 75 78 79 80 80 81 85 85 83 82 83 84 84 84 84
51 51 50 49 49 48 48 47 47 47 47 47 47 47 47 48 49 49 49 49 50 50 51 51 51 51 51 51 51 51 50 50 50 50 50 50 50 50 50 50 50 50 51 51 51 51 52 52 53 53 54 55 56 56 57 58 59 60 61 62 63 63 64 64 64 65 68 70 71 75 77 75 74 77 79 78 78 80 84 87 85 83 84 85 85 84 84
54 54 54 53 53 52 51 51 50 50 49 49 49 49 50 50 50 51 51 51 51 51 52 52 52 53 53 53 53 53 53 53 53 52 53 53 52 52 52 53 53 53 53 53 53 54 54 55 55 56 56 58 58 59 60 61 62 63 64 65 66 66 67 68 67 67 68 71 72 75 77 76 74 76 78 78 77 78 82 87 86 84 84 85 85 84 84
57 57 57 56 56 56 55 55 54 53 53 52 52 52 52 52 52 53 53 53 53 53 54 54 54 54 55 55 55 55 55 55 55 55 55 55 55 55 55 55 56 56 56 56 56 56 57 57 58 59 59 60 61 62 64 65 66 66 67 68 68 69 70 71 71 70 70 71 73 74 77 77 76 77 79 79 78 77 79 84 86 84 83 84 84 83 83
59 60 60 60 59 59 59 59 58 58 57 56 55 55 55 55 55 55 55 55 55 56 56 56 56 56 57 57 57 58 58 58 58 58 58 58 58 58 58 58 58 59 59 59 59 59 60 61 61 62 63 63 64 65 67 68 69 69 70 71 71 71 72 73 73 72 71 71 73 74 76 78 78 79 81 80 78 76 75 80 84 83 82 82 82 81 82
59 61 62 62 63 63 62 62 62 61 61 61 60 59 59 58 58 58 58 58 58 58 58 58 58 58 59 59 59 59 60 60 60 60 61 61 61 61 61 61 61 61 61 62 62 62 63 63 64 65 66 66 67 68 69 71 72 72 73 74 74 74 74 74 75 74 71 70 71 73 77 79 79 79 81 81 78 76 74 76 80 80 79 80 80 80 80
57 60 62 63 64 65 65 65 65 65 64 64 64 63 63 62 62 62 62 61 61 61 60 60 61 61 61 61 61 62 62 62 62 63 63 63 63 63 64 64 64 64 64 65 65 65 66 66 66 67 68 69 69 70 72 73 74 75 75 76 76 76 75 75 75 74 72 71 71 73 76 78 78 80 83 83 79 76 75 76 78 78 78 78 79 79 79
54 57 59 62 63 65 66 67 67 68 68 67 67 67 66 66 66 65 65 65 65 64 64 63 63 63 64 64 64 64 64 64 65 65 66 66 66 66 66 66 66 67 67 67 67 68 68 69 69 69 70 70 71 71 73 74 75 76 77 77 77 77 76 75 75 74 73 73 73 76 78 79 78 81 86 86 83 79 77 76 77 77 77 77 78 78 78
51 53 56 59 61 63 65 67 68 69 69 70 70 70 70 70 69 69 69 68 68 68 67 67 67 67 67 67 67 67 67 67 67 67 68 68 69 69 69 69 69 69 69 69 70 70 70 71 71 71 71 72 72 72 73 74 75 76 77 77 78 79 78 77 75 74 74 74 74 77 80 79 79 82 87 89 86 81 79 77 76 76 77 77 78 78 78
52 53 54 56 58 60 63 65 67 68 69 70 71 71 72 72 72 72 72 72 72 71 70 70 70 70 70 69 69 69 69 69 70 70 70 71 71 71 71 71 71 72 71 71 72 72 72 73 72 72 72 74 74 73 73 75 75 77 78 78 79 81 81 80 77 75 75 74 74 77 79 78 78 82 87 89 86 81 79 79 78 77 77 78 79 78 77
56 56 56 57 58 59 61 62 65 67 68 70 71 71 72 73 73 74 74 74 74 74 74 73 73 73 73 72 72 72 72 72 72 72 73 73 73 73 73 73 73 74 73 74 74 73 73 74 74 73 73 75 75 75 75 75 76 78 80 80 81 83 84 82 79 77 74 73 75 77 76 75 77 81 85 87 85 81 79 79 79 79 79 79 79 78 76
60 60 60 60 60 60 61 62 63 65 67 68 70 71 72 73 74 74 75 75 75 76 76 76 76 76 75 75 75 75 75 75 75 75 75 75 75 75 76 76 76 76 75 76 76 76 75 75 76 75 75 76 76 76 76 76 77 80 82 83 84 87 88 85 82 79 75 74 76 77 75 74 75 79 83 85 83 81 80 79 79 79 79 78 77 76 74
65 65 65 64 64 64 64 64 64 65 66 67 69 70 71 73 74 75 75 76 76 76 77 77 77 78 78 78 78 78 77 77 77 77 78 78 78 78 78 78 78 78 78 78 78 78 77 77 78 77 77 78 78 78 77 77 78 80 83 84 87 92 94 90 86 82 77 75 77 77 76 76 77 79 82 83 82 81 81 80 79 78 77 76 75 74 73
69 69 69 69 69 69 68 68 67 67 68 68 69 69 70 72 73 74 75 76 76 77 77 77 78 79 79 79 80 80 80 80 80 80 80 80 80 81 81 81 81 81 81 81 81 81 80 80 80 79 80 81 80 80 79 79 79 80 82 84 89 95 97 94 90 86 82 80 80 78 77 79 80 81 82 81 80 81 81 80 78 77 75 74 73 72 72
73 73 73 74 74 73 73 73 72 71 71 71 71 71 72 72 73 74 74 75 76 77 78 78 79 79 79 80 80 81 82 82 81 82 82 82 82 83 83 83 83 83 83 83 83 83 83 82 82 82 82 83 83 82 82 82 82 82 83 85 90 97 98 95 92 88 84 84 83 79 77 78 80 82 83 80 79 80 80 78 77 76 74 73 73 73 73
77 77 77 77 78 78 78 77 77 77 76 75 75 75 75 74 75 75 75 75 75 76 77 78 79 80 80 80 80 81 82 82 83 84 84 84 84 85 85 85 85 85 85 85 85 84 84 85 85 84 84 85 85 84 84 84 83 83 83 86 93 97 98 95 92 88 85 84 83 80 77 76 79 81 81 78 77 77 77 76 76 74 74 74 74 74 75
80 81 81 81 81 82 82 82 82 81 81 80 80 79 79 78 78 78 77 77 77 77 77 77 79 80 80 80 81 81 82 83 83 84 84 85 85 86 86 87 87 87 87 87 86 86 86 86 86 86 87 87 86 85 85 84 84 83 84 88 95 97 95 93 91 88 86 84 81 78 75 75 79 81 78 76 75 75 74 75 75 74 74 75 75 76 76
83 84 85 85 85 85 86 86 86 86 85 85 85 84 84 83 82 82 81 80 80 79 78 78 79 80 80 80 80 82 82 83 83 83 84 85 85 86 87 87 87 88 88 88 88 88 87 87 87 87 88 88 87 86 86 84 84 83 83 89 97 97 94 92 91 88 85 83 80 76 73 73 76 78 77 75 73 71 70 72 73 74 74 75 76 78 78
85 86 87 88 89 89 89 89 90 90 90 90 89 89 88 88 87 86 85 84 84 83 82 80 80 81 81 80 81 82 82 83 83 84 84 85 85 86 86 87 88 88 88 89 89 89 88 88 88 88 88 88 88 86 85 83 82 80 82 89 97 97 93 92 92 89 85 82 80 77 73 71 72 74 74 73 72 69 68 70 72 74 75 76 77 78 79
86 88 89 91 92 92 92 92 93 94 94 94 94 94 93 92 91 91 90 89 88 88 86 84 83 83 82 82 83 83 83 83 84 84 85 86 86 87 87 88 88 89 89 90 89 89 89 89 88 88 89 89 88 86 83 80 79 78 80 88 95 96 94 93 93 90 86 82 80 78 75 73 73 74 73 74 73 71 69 71 74 75 76 78 79 80 81
85 87 89 91 94 95 96 95 95 95 97 98 98 98 97 97 96 95 94 94 93 92 91 89 87 86 85 84 85 85 85 85 85 85 86 87 87 88 88 89 89 90 91 90 90 90 89 88 88 89 89 89 88 85 81 79 76 75 79 86 91 93 94 95 94 92 87 83 80 78 76 76 76 75 74 75 76 74 73 74 76 77 78 80 81 82 82
80 83 85 88 92 95 97 97 97 96 97 99 100 101 101 100 100 99 99 98 98 97 96 94 92 90 89 88 87 88 89 89 89 88 88 88 89 89 90 90 91 92 92 92 92 91 90 89 88 89 89 90 89 84 80 78 75 72 75 82 87 90 93 94 93 92 89 85 81 77 76 77 79 78 77 78 79 78 76 77 78 79 80 82 83 84 85
74 77 79 83 87 91 95 96 96 96 97 98 100 102 103 103 103 102 102 102 102 102 100 99 97 95 93 92 91 92 93 93 93 93 92 92 91 92 92 93 93 94 94 94 93 92 91 90 89 89 89 90 89 84 79 77 73 70 73 79 84 88 92 92 92 92 91 87 83 78 76 77 80 80 79 80 81 80 79 80 81 82 83 85 86 87 87
69 71 73 76 81 86 91 93 93 93 94 95 97 100 102 104 105 105 105 105 105 105 104 103 102 100 98 97 96 96 97 97 97 97 97 96 96 96 96 96 96 96 96 96 95 95 93 91 89 90 91 90 87 83 79 75 74 75 78 80 82 88 92 93 93 93 92 90 87 82 79 79 81 82 82 83 83 82 82 82 83 84 85 87 89 90 90
64 66 68 70 75 81 86 89 90 89 89 90 93 96 99 102 104 105 106 107 107 107 106 106 105 104 103 102 101 101 102 102 102 102 102 101 101 101 101 100 100 100 100 99 99 98 95 92 92 93 92 90 87 83 78 75 79 83 85 83 84 89 94 96 96 95 93 91 90 88 85 83 83 84 86 86 87 86 85 85 85 86 87 89 90 91 91
61 62 63 65 70 76 82 85 86 85 83 83 86 90 94 97 100 102 104 106 107 107 108 108 107 106 106 106 105 106 106 106 106 106 106 106 106 106 105 105 105 105 104 104 103 101 98 96 96 95 93 91 89 84 80 80 85 89 89 88 88 91 95 98 100 99 96 94 93 93 92 89 88 88 89 90 91 90 89 89 88 88 88 90 92 92 92
58 59 60 61 65 72 78 82 83 81 79 78 79 82 87 91 95 97 99 101 103 104 106 108 108 107 107 108 108 109 110 110 110 110 110 110 110 110 110 110 109 109 109 108 107 104 102 101 100 98 95 93 89 86 85 87 90 92 93 94 93 94 96 100 102 102 100 98 97 97 96 95 94 93 93 93 94 94 93 93 92 91 90 92 93 94 94
56 56 56 58 61 67 74 78 79 79 77 75 74 76 80 84 88 91 94 96 98 100 102 104 105 107 108 109 110 111 113 113 112 113 113 113 114 114 114 114 113 113 112 111 110 108 107 107 105 102 99 95 91 88 90 92 94 96 97 97 97 98 101 103 105 105 104 103 102 102 101 99 98 98 97 97 97 97 97 96 96 95 94 94 95 95 96
55 54 54 55 58 63 70 75 77 77 76 74 72 72 74 77 81 84 88 91 93 95 97 98 100 103 106 108 109 111 113 113 114 114 115 115 116 116 116 116 116 116 115 114 112 112 112 111 109 107 104 99 94 92 94 97 100 101 100 99 100 102 104 106 108 109 107 106 106 107 106 104 103 102 102 101 101 101 101 101 101 100 100 99 98 98 98
56 53 52 53 55 59 65 71 74 75 75 74 72 70 70 72 74 77 80 84 87 90 92 94 96 99 102 104 106 108 110 112 113 114 115 116 117 117 117 117 118 117 116 115 115 115 115 114 113 111 108 103 98 97 99 103 105 105 104 104 104 105 106 107 110 111 110 110 110 111 111 110 108 106 106 105 105 105 105 105 105 105 105 105 104 103 103
57 54 52 52 53 56 62 67 71 73 74 73 72 69 68 68 70 72 75 78 81 85 88 90 92 95 97 99 101 104 107 108 110 112 113 115 116 117 117 118 119 119 117 116 115 115 116 115 115 113 110 105 101 102 104 107 108 108 108 109 109 109 109 110 112 113 114 114 113 113 114 114 114 113 111 110 109 109 109 110 110 110 110 109 109 108 107
60 56 53 52 52 55 59 64 68 70 71 72 71 70 68 67 68 70 72 74 77 81 84 87 90 92 94 95 97 100 103 104 106 108 110 112 113 114 116 117 118 118 117 116 116 117 116 116 115 113 110 106 105 107 109 110 110 111 112 113 113 112 112 112 114 115 115 116 116 116 116 116 117 118 118 117 115 112 111 111 112 111 111 111 111 111 111
63 58 54 52 52 53 57 61 64 67 68 70 70 70 69 68 69 70 71 73 75 78 81 84 86 89 91 92 94 96 98 100 102 104 106 108 109 111 113 114 115 116 115 115 116 117 117 116 115 113 111 110 111 113 114 113 113 114 115 115 115 115 115 116 116 116 116 116 117 117 117 117 117 118 120 121 121 120 117 116 116 115 115 114 113 113 113
65 60 56 53 52 52 54 58 62 64 66 68 69 70 70 70 70 71 72 73 74 76 78 80 83 86 88 91 92 93 95 97 99 101 102 104 106 107 109 111 111 112 112 112 113 115 115 115 114 114 114 115 117 117 117 116 116 117 117 117 117 118 118 118 118 118 117 117 117 118 118 118 119 119 120 121 122 123 123 122 122 121 121 121 120 120 119
68 63 58 54 52 51 52 55 60 62 63 66 68 70 70 72 72 72 73 74 74 75 77 79 81 83 85 88 90 92 93 95 96 98 99 100 102 104 105 107 107 107 108 109 110 111 112 112 113 115 117 119 120 120 120 119 119 120 121 121 121 121 121 120 120 120 120 120 120 120 120 119 119 120 120 120 121 122 122 123 123 123 123 123 123 124 125
70 65 60 55 51 50 50 54 59 62 62 64 67 69 70 72 73 74 74 75 75 76 77 78 80 81 83 84 86 89 91 93 95 96 97 97 98 99 101 102 103 104 104 105 105 106 107 109 111 115 118 120 121 122 122 121 122 123 123 124 123 123 122 122 122 122 122 122 122 123 122 122 121 120 120 120 120 121 122 123 123 123 123 122 122 123 124
72 67 62 55 50 49 50 53 57 61 63 64 65 67 69 72 74 75 76 77 77 77 78 78 79 81 82 83 84 86 88 90 92 94 95 96 96 96 97 98 98 99 99 100 101 101 102 104 107 111 114 117 119 121 122 123 123 124 124 124 124 124 123 123 123 123 123 123 123 123 124 124 123 123 122 121 121 121 122 123 124 124 125 125 124 123 123
73 69 63 55 50 50 52 54 57 60 62 64 65 66 68 71 74 76 77 78 78 78 79 79 80 80 82 83 84 85 86 87 89 91 93 94 95 95 95 95 94 94 94 95 95 95 97 99 102 105 108 111 114 117 120 122 123 124 124 123 123 123 123 123 123 123 123 123 123 123 123 123 123 123 122 122 121 121 122 123 123 124 124 125 124 124 123
74 69 62 55 51 52 55 57 57 59 61 64 66 68 69 70 72 75 77 78 79 79 80 80 80 81 82 83 84 84 85 86 87 88 90 92 92 92 92 92 91 91 91 91 90 92 95 98 100 101 104 107 110 113 116 118 120 121 121 121 121 122 122 122 122 122 122 122 121 121 121 121 121 122 122 121 120 120 120 121 122 122 122 122 122 121 120
75 68 61 56 54 54 57 57 57 57 60 64 66 68 70 71 72 74 76 78 79 80 81 81 82 82 82 83 83 84 84 86 87 87 88 89 89 89 88 88 88 87 87 87 88 91 94 97 97 98 101 104 106 108 110 112 114 115 116 117 118 118 119 119 119 119 119 119 118 118 117 118 118 118 118 118 118 117 117 118 118 119 119 118 117 115 114
75 66 59 57 56 56 56 57 56 56 59 63 65 67 69 71 73 75 77 78 79 80 81 82 83 84 83 83 83 83 84 85 87 87 86 86 86 86 86 85 84 82 81 84 88 90 92 95 96 98 100 102 103 104 105 107 108 110 111 112 113 114 114 114 114 114 114 114 114 113 112 112 113 113 114 114 113 112 111 111 112 112 113 113 112 109 107
73 65 62 61 59 56 56 58 57 56 58 61 64 65 67 69 71 74 77 78 80 81 81 82 84 85 84 84 84 83 84 85 86 86 84 82 83 85 85 84 81 79 80 85 89 90 91 94 97 98 98 100 101 102 103 104 105 106 107 108 109 109 110 110 110 109 109 109 109 108 108 108 108 108 109 109 107 106 104 104 104 105 105 105 105 104 103
72 67 66 66 62 59 58 60 59 57 58 61 63 65 67 68 69 71 74 76 79 81 83 84 85 85 84 84 84 85 84 84 84 83 81 79 81 83 84 82 80 81 84 88 89 90 91 94 96 97 98 99 100 102 103 104 104 104 104 105 106 106 106 106 106 106 105 105 105 105 104 104 104 104 104 103 101 100 98 97 97 98 99 99 99 99 99
73 70 67 66 65 64 63 62 61 60 60 61 63 66 67 69 70 72 73 74 75 78 82 86 87 86 85 84 85 85 84 83 81 80 79 78 79 81 82 82 83 86 89 90 90 91 92 94 96 97 99 99 100 101 102 103 102 102 102 102 103 104 104 104 104 104 103 103 102 101 101 101 101 102 101 99 98 97 96 95 94 94 95 95 95 96 97
Wind_Direction
209 208 208 208 208 209 210 210 211 213 215 216 216 217 218 220 222 224 227 228 228 228 230 233 236 240 244 247 249 252 254 257 258 260 261 262 264 266 268 271 274 276 277 277 278 279 281 283 286 287 289 291 294 297 301 305 308 311 314 317 320 322 325 327 329 331 332 334 335 336 338 339 340 340 341 342 343 344 346 345 345 344 343 344 345 345 344
213 213 213 213 213 213 214 215 216 217 218 219 220 220 222 224 227 230 232 234 235 235 235 238 240 243 246 248 251 254 256 258 260 261 262 264 266 268 269 271 273 275 276 278 279 280 282 284 286 288 290 292 295 299 302 305 308 311 314 317 319 321 323 325 327 328 329 331 332 334 336 338 339 339 340 341 342 343 344 345 345 344 342 342 344 345 344
216 216 216 217 217 218 218 219 220 220 221 222 223 223 225 227 230 233 236 238 240 240 241 242 244 247 249 250 252 255 257 259 260 262 263 264 266 268 270 271 273 275 276 278 280 282 284 285 287 289 291 293 296 299 302 305 308 311 314 316 318 320 322 324 326 327 327 329 331 333 335 337 338 339 339 340 340 341 342 345 346 344 342 341 343 344 344
220 219 219 220 220 221 222 222 223 223 223 224 225 226 227 229 232 236 239 241 243 244 245 246 248 250 251 253 255 256 258 259 261 262 263 265 266 268 270 272 274 276 278 279 281 283 285 286 288 290 292 294 297 300 303 305 308 311 313 315 318 320 321 323 325 327 328 329 332 334 335 336 336 338 339 339 339 339 341 344 345 343 342 342 341 342 343
224 223 223 222 223 223 224 225 226 226 226 226 227 228 229 231 234 236 239 242 244 246 247 249 251 253 255 256 257 258 260 261 262 263 264 266 267 269 272 274 276 278 279 281 283 285 286 288 289 291 293 295 298 300 303 305 307 310 312 314 317 319 321 322 324 326 327 328 330 333 334 335 336 337 339 339 339 339 340 342 344 342 341 342 341 341 342
227 227 226 226 226 226 226 227 228 228 229 229 229 230 231 233 235 238 240 242 244 246 248 251 253 255 257 258 259 260 261 262 263 265 266 267 269 271 273 276 278 279 281 283 284 286 288 289 290 292 294 296 298 300 302 304 307 309 311 313 315 317 319 321 322 324 326 328 329 331 333 334 335 337 338 338 338 338 338 340 342 342 341 341 341 341 341
231 231 230 230 230 230 229 230 230 231 231 232 232 233 234 235 237 239 241 242 245 247 249 251 253 256 258 259 260 261 263 264 265 266 267 269 270 272 274 277 279 280 282 283 285 286 288 289 291 293 294 296 298 300 302 304 306 307 309 311 313 315 317 319 320 322 325 326 327 329 331 333 334 335 336 337 338 337 336 337 340 342 340 339 340 341 341
234 234 234 234 234 234 233 233 234 234 234 235 235 236 237 237 239 240 242 243 245 247 249 251 253 255 257 259 260 262 263 264 265 267 268 270 271 273 275 277 279 280 282 283 285 286 288 290 291 293 295 296 298 300 301 303 304 306 308 309 311 313 315 317 319 320 322 324 325 326 329 332 333 333 334 336 337 336 335 336 339 340 339 338 339 341 341
236 237 238 238 238 238 237 237 237 237 238 238 238 239 239 240 241 242 243 245 246 248 250 252 253 256 257 259 260 261 263 264 265 267 269 270 272 274 276 277 279 280 281 283 284 286 288 289 291 293 294 296 297 299 300 302 303 304 306 308 309 311 313 315 317 318 320 322 323 324 326 330 331 332 333 334 335 335 335 335 338 339 338 337 338 340 341
237 238 239 240 241 241 241 241 241 241 241 241 241 242 243 243 244 245 245 247 248 249 251 252 254 256 257 259 260 262 263 264 266 267 269 271 272 274 276 277 279 280 281 283 284 286 287 289 290 292 293 295 296 297 299 300 301 303 305 306 308 310 311 313 315 316 318 320 321 322 324 327 330 331 331 332 333 335 335 334 335 337 337 336 337 339 340
238 239 240 241 242 243 243 244 244 244 244 244 244 245 245 246 246 247 247 248 250 251 252 253 255 256 258 259 261 262 263 264 266 267 269 271 273 274 276 277 279 280 281 282 284 285 287 288 290 291 292 294 295 296 298 299 300 302 304 305 307 309 310 312 313 315 317 319 321 322 323 326 329 329 329 330 332 335 335 333 333 336 336 336 336 338 338
237 239 241 242 243 244 244 245 246 246 247 247 247 247 248 248 248 249 250 250 251 252 254 255 256 257 259 260 261 262 264 265 266 268 269 271 272 274 276 277 278 280 281 282 284 285 286 288 289 290 292 293 295 296 298 299 300 302 303 305 306 308 309 311 312 314 317 318 320 322 322 324 327 328 328 330 331 333 334 332 332 334 335 334 335 336 337
235 237 239 241 243 244 245 246 246 247 248 249 249 250 250 251 251 251 252 252 252 253 254 255 257 258 259 261 262 263 264 265 267 268 269 271 272 274 275 277 278 279 281 282 283 285 286 287 289 290 292 293 294 296 297 299 300 302 303 304 306 307 309 310 312 314 316 318 320 321 322 323 325 327 327 328 328 330 333 332 330 332 333 333 333 335 336
236 236 237 239 241 242 244 246 247 248 248 249 249 250 251 252 253 254 254 255 255 255 255 256 257 258 259 260 262 263 265 266 267 268 270 271 273 274 275 277 278 279 280 282 283 284 286 287 288 290 292 293 295 296 297 299 300 302 303 304 306 308 309 310 311 313 315 318 319 321 322 322 324 325 325 325 326 328 331 331 329 330 331 332 332 334 335
239 239 239 239 240 241 242 244 245 247 248 249 250 250 251 252 253 254 255 256 257 257 258 258 258 258 259 260 261 263 264 265 267 268 270 271 272 274 275 276 278 279 280 281 283 284 285 286 288 289 291 292 294 296 297 299 300 302 303 304 305 307 308 309 311 312 314 317 319 320 320 321 322 323 323 323 325 327 329 329 328 329 330 331 331 333 333
242 242 242 242 242 242 243 243 244 245 247 248 249 250 251 252 253 254 255 256 257 258 259 260 260 261 261 261 262 263 264 265 266 267 269 270 272 273 274 276 277 278 279 281 282 283 284 285 287 288 289 291 293 294 296 297 299 300 302 303 305 306 307 308 310 311 314 316 319 320 319 320 322 323 322 322 323 326 327 327 327 328 329 330 330 331 332
246 246 245 245 245 245 245 245 245 246 247 247 248 249 250 251 252 253 254 255 256 257 258 260 261 262 263 263 264 264 265 265 266 267 268 269 271 272 273 275 276 277 279 280 281 283 284 285 286 288 289 290 292 293 295 296 298 299 300 302 303 304 306 307 308 310 312 315 317 318 318 319 322 322 321 320 322 324 325 325 326 327 328 328 329 330 332
247 249 249 249 248 248 247 248 248 248 248 248 249 249 250 251 251 252 253 254 255 256 257 258 259 261 262 263 264 265 266 267 267 268 269 270 271 272 273 274 276 277 278 279 281 282 283 284 286 287 289 290 291 293 294 296 297 298 299 301 302 303 304 305 307 308 310 313 315 315 316 318 320 320 319 318 319 322 324 324 325 327 327 328 329 331 333
246 247 249 251 251 251 250 250 250 250 250 250 250 251 251 252 252 252 253 254 255 255 256 257 258 259 260 262 263 264 266 267 268 269 270 271 272 273 274 275 275 277 278 279 280 281 283 284 285 287 288 289 291 292 294 295 297 298 299 300 301 301 302 303 305 306 309 311 312 312 314 316 318 318 317 316 318 321 323 324 325 326 327 328 329 331 333
245 246 247 249 250 252 253 253 252 252 252 252 252 252 252 253 253 253 254 254 255 256 256 257 258 258 259 260 261 263 264 265 267 268 269 270 271 273 274 274 276 277 278 279 280 281 282 283 285 286 287 288 290 291 293 294 296 297 298 300 301 300 300 301 303 305 307 310 310 310 312 315 316 316 315 315 318 321 322 323 325 326 327 329 329 331 332
247 247 247 247 248 250 251 253 254 254 254 254 254 254 254 254 254 254 255 255 256 256 257 257 258 259 259 260 261 261 263 264 265 266 267 269 270 271 272 273 275 276 277 278 279 280 281 282 284 285 287 288 289 290 291 293 294 296 297 299 300 299 299 301 302 304 306 308 308 309 312 315 316 316 315 316 319 320 321 323 325 325 327 328 328 330 331
248 248 248 248 248 249 249 250 251 253 254 255 255 255 255 255 255 255 256 256 257 257 258 258 259 259 260 261 261 262 263 263 264 265 266 267 268 269 271 272 273 274 275 277 278 279 280 281 283 284 285 286 287 289 290 292 293 294 296 298 299 298 298 300 301 303 306 308 308 310 313 315 316 315 314 316 319 320 320 322 323 324 325 326 327 329 330
249 249 249 249 249 249 249 250 250 251 252 254 255 256 256 256 256 256 257 257 257 258 258 259 259 260 260 261 262 263 264 264 265 266 266 267 268 269 270 271 272 273 274 275 276 277 279 280 281 283 284 285 286 288 289 291 292 294 296 297 297 296 297 299 300 303 305 307 307 310 313 315 315 313 313 316 318 318 319 321 322 323 324 325 326 327 328
250 250 250 251 250 250 250 250 250 251 251 252 253 254 255 256 257 257 257 258 258 259 259 260 260 261 261 261 262 263 264 265 266 267 267 268 269 270 270 271 272 273 274 274 276 277 278 279 281 282 283 284 285 287 288 290 292 293 296 297 296 295 295 297 299 301 303 305 306 308 312 313 312 310 312 315 316 317 318 319 320 322 323 324 324 325 326
252 251 251 251 252 252 252 251 251 251 251 252 252 253 254 255 256 256 257 258 258 259 260 260 261 261 262 262 263 264 264 265 266 267 268 269 269 270 271 272 273 274 274 275 276 277 278 279 280 281 282 283 285 286 288 289 291 293 295 296 294 293 294 295 297 299 301 303 304 307 310 312 310 308 310 313 314 316 317 318 319 320 321 321 322 323 324
254 254 253 252 252 252 253 253 252 252 252 252 252 253 253 254 254 255 256 257 258 258 259 260 262 262 262 263 264 265 265 265 266 267 268 269 269 270 271 272 273 274 275 275 276 277 278 279 280 281 282 283 284 285 287 289 291 294 296 295 293 292 294 295 296 297 299 301 303 305 308 309 308 308 309 311 312 314 315 316 316 317 318 319 320 321 322
257 257 256 255 254 254 253 254 254 254 253 252 252 253 253 254 254 255 256 257 257 258 258 259 261 262 263 264 265 265 266 266 267 267 268 269 269 270 271 271 272 273 274 274 275 276 277 278 279 280 281 282 283 284 286 288 291 294 295 294 292 293 294 294 294 295 298 300 302 303 305 306 306 306 307 309 310 311 312 312 313 314 315 317 318 319 320
258 258 259 259 258 256 255 255 255 255 255 255 254 254 254 254 254 255 255 256 257 258 258 259 259 261 263 264 265 266 266 267 267 268 268 269 269 270 270 271 271 272 273 273 274 275 276 277 278 279 280 281 282 283 285 288 291 294 294 292 292 293 294 293 293 294 296 299 300 301 303 304 303 304 305 306 307 308 310 311 312 313 314 315 316 317 318
258 259 259 260 260 259 258 257 257 257 257 257 257 256 255 255 255 255 255 256 256 257 258 258 259 260 261 262 264 266 266 267 267 268 268 269 269 270 270 271 271 271 272 273 273 274 275 276 277 278 279 280 281 283 286 289 291 294 294 292 292 293 293 293 293 295 296 298 299 300 302 303 302 303 304 305 306 308 310 311 311 312 313 314 314 315 316
259 259 260 260 261 260 260 259 258 258 259 259 259 259 258 257 257 257 257 257 257 257 258 258 259 259 260 261 262 264 265 266 267 267 268 268 269 269 270 271 271 271 272 272 273 273 274 275 276 278 279 280 280 283 286 289 291 293 292 290 291 292 292 292 293 294 295 297 298 300 302 302 301 303 304 304 305 307 309 309 310 311 311 312 312 313 314
260 260 261 261 262 262 261 260 259 259 259 260 260 261 261 260 259 259 258 258 258 258 258 258 258 259 260 260 261 262 263 264 265 266 267 267 268 269 269 270 271 271 272 272 273 274 274 275 276 277 278 279 281 284 287 289 292 291 288 287 289 291 290 291 292 293 294 296 298 299 301 300 300 301 302 303 304 305 306 307 308 309 309 310 310 311 313
261 262 262 263 264 264 263 262 260 260 259 260 261 261 262 262 261 261 260 260 259 260 260 259 259 259 259 260 261 261 262 263 264 265 265 266 267 267 268 269 270 271 271 272 273 274 275 276 277 278 278 280 282 285 288 291 291 288 285 286 288 288 288 289 291 292 294 295 297 298 298 299 299 300 300 301 302 303 304 305 306 307 308 308 309 310 311
264 264 265 266 267 267 266 264 263 262 261 261 261 261 262 262 262 262 262 261 261 261 260 260 260 260 260 260 260 261 261 262 263 264 264 265 266 266 267 268 269 270 271 271 272 273 274 276 277 277 279 281 283 285 287 289 287 285 285 286 286 286 287 289 290 291 292 294 295 296 297 297 298 298 299 299 300 301 302 303 304 305 306 306 306 307 309
267 267 267 268 269 270 269 267 266 264 263 262 262 262 262 263 263 263 263 263 263 262 262 261 261 261 261 261 261 261 261 261 262 263 264 265 265 266 267 267 268 269 270 271 272 273 274 275 276 277 279 280 283 285 286 285 284 285 286 286 285 286 287 288 289 290 292 293 294 295 296 296 296 296 297 298 299 300 300 301 301 302 303 304 304 305 306
270 269 268 269 270 272 271 270 269 267 265 263 262 262 262 263 263 264 264 264 264 264 263 263 262 262 261 260 260 261 261 261 262 263 263 264 265 266 267 267 268 269 270 271 272 273 274 275 275 277 278 280 282 284 284 283 283 284 284 284 285 286 286 287 288 290 291 292 292 293 293 294 294 295 295 296 297 298 299 299 300 300 301 302 302 304 305
272 271 269 269 271 274 274 273 272 270 268 266 263 262 262 262 263 264 264 264 265 265 265 264 264 263 262 261 261 261 261 261 262 263 263 264 265 266 267 267 268 269 270 272 273 274 274 275 276 277 278 279 281 282 282 282 281 281 281 282 284 285 285 286 287 288 289 290 291 291 291 292 292 293 294 294 295 296 297 297 298 299 299 300 301 302 303
274 272 271 271 273 276 276 275 274 273 271 269 266 264 263 263 264 264 265 265 265 265 265 265 265 265 264 263 262 262 262 262 262 263 264 264 265 266 267 267 268 269 270 271 272 273 274 275 276 277 278 279 280 280 280 280 279 279 280 281 282 283 284 285 286 287 288 289 289 290 290 291 291 292 293 293 294 295 296 297 297 298 299 299 300 301 302
277 274 272 272 275 277 278 277 276 275 274 273 271 269 267 266 265 265 265 266 266 266 266 266 266 266 265 265 264 264 263 263 263 263 263 264 265 266 267 268 268 269 270 270 271 272 274 275 276 277 277 279 279 280 279 278 278 278 280 281 281 282 283 284 285 286 287 288 289 290 291 291 292 292 293 293 294 295 296 296 297 298 299 300 301 301 302
279 276 274 275 276 278 278 278 278 278 277 276 275 273 271 269 267 266 266 266 266 267 267 266 266 266 266 266 265 265 265 264 264 264 264 264 264 265 266 267 268 269 269 270 271 272 273 274 275 276 277 278 279 278 277 277 278 279 279 280 280 281 282 283 284 285 286 287 288 289 291 292 293 293 293 293 294 294 295 296 297 298 298 299 300 300 301
282 279 278 278 279 279 279 279 279 279 279 279 278 277 274 272 269 267 266 266 266 267 267 267 267 267 267 266 266 266 266 266 265 265 265 265 265 265 265 266 267 268 268 269 270 271 272 273 274 275 276 276 276 275 275 276 277 278 279 279 280 281 281 282 283 284 285 287 288 289 290 291 292 293 294 294 294 294 294 295 295 296 297 297 298 299 299
285 282 280 281 282 282 281 279 279 279 280 280 279 279 277 274 271 269 267 267 267 267 268 268 269 269 268 268 267 267 267 266 266 266 266 265 265 265 265 266 266 267 267 268 269 270 271 272 273 274 274 273 273 273 273 275 276 277 278 279 280 280 281 281 282 283 285 286 287 288 289 290 291 292 293 294 295 296 296 296 297 297 297 297 298 298 298
287 285 283 284 284 284 282 279 278 278 279 280 280 279 278 276 274 272 270 269 269 269 269 269 270 270 271 270 269 268 268 267 267 267 267 267 266 266 266 266 267 267 268 268 269 269 270 271 271 271 271 271 271 271 272 274 275 276 276 277 278 279 280 281 282 283 284 284 285 286 287 288 289 290 291 292 294 295 296 297 298 298 299 299 300 300 300
288 287 286 287 286 285 282 280 278 278 278 279 280 280 280 279 277 276 275 274 273 272 271 271 270 271 271 271 271 271 270 269 269 268 268 268 268 268 268 268 268 268 268 269 269 269 270 270 271 270 270 270 270 270 271 272 274 274 275 276 277 278 279 280 281 281 282 283 284 284 285 286 287 288 289 291 292 293 294 295 296 296 297 298 299 300 300
290 289 288 288 288 285 282 281 279 277 277 278 280 281 281 281 280 279 278 277 276 275 274 273 272 272 272 272 272 272 272 272 271 271 270 269 269 269 269 269 269 269 270 270 270 270 271 271 271 271 270 270 271 271 272 273 273 273 274 275 276 277 278 278 279 280 281 282 283 283 284 285 286 287 288 289 290 290 291 292 293 294 294 295 296 297 298
290 290 289 290 289 285 283 281 280 278 278 278 280 281 282 282 281 281 280 279 278 277 276 275 275 274 274 273 273 273 273 273 273 273 272 272 271 270 270 270 270 270 271 271 271 271 272 272 271 271 271 271 272 273 274 274 274 274 274 275 276 276 277 278 279 279 280 281 282 283 284 285 286 287 287 288 289 289 290 291 292 292 293 294 295 296 296
290 290 290 290 289 286 284 282 280 279 280 280 280 281 281 282 282 282 281 281 281 280 279 278 277 276 276 275 274 274 273 273 273 273 273 273 273 272 272 272 272 272 272 272 272 272 272 271 270 270 271 272 274 274 274 275 275 275 275 276 276 277 278 278 279 279 280 281 282 283 283 284 285 286 287 288 288 289 290 290 291 292 292 293 294 295 296
290 290 290 290 288 286 284 282 280 281 282 283 282 281 281 281 282 282 282 282 282 281 281 280 279 278 277 276 276 275 275 275 274 274 274 274 274 274 274 275 275 275 275 275 274 274 272 271 271 271 272 273 273 273 273 274 275 276 276 277 277 278 278 279 279 280 280 281 281 282 283 284 285 286 286 287 288 288 289 289 290 291 292 293 293 295 296
289 289 290 290 288 285 282 281 281 282 283 283 283 283 283 282 282 282 282 282 282 282 281 281 280 279 279 278 277 277 277 276 276 276 275 275 275 276 276 276 276 277 277 277 276 274 273 273 273 273 272 272 272 272 273 274 275 276 276 277 277 278 278 278 279 279 279 280 281 281 282 283 283 284 284 285 286 286 287 288 289 290 291 292 292 293 294
289 290 291 290 286 283 281 279 279 281 282 283 283 284 284 284 283 283 282 282 281 281 281 281 281 281 280 279 279 278 278 277 277 277 277 278 279 279 278 277 277 278 278 277 275 273 273 274 273 273 272 272 273 273 273 274 274 275 275 276 276 277 277 277 278 278 279 280 280 280 281 281 281 282 282 283 283 284 285 286 288 288 289 290 291 292 293
290 291 291 289 286 283 281 280 280 281 282 282 283 283 283 283 284 284 283 283 282 282 281 281 281 281 281 281 280 279 278 278 278 278 279 281 282 281 280 280 280 280 277 275 273 273 273 273 272 272 273 273 274 274 274 274 274 274 274 275 275 276 277 277 278 279 279 280 280 281 281 281 281 281 282 282 283 284 285 286 286 287 288 289 290 290 291
290 291 290 289 287 285 283 283 283 283 282 281 282 282 282 283 283 283 282 283 283 283 282 281 280 280 280 280 280 279 279 279 279 280 282 282 282 282 282 281 281 279 275 273 273 272 272 271 272 272 272 272 273 273 273 274 274 274 275 276 277 278 278 279 280 280 281 281 282 282 283 283 283 283 284 284 284 285 285 285 286 286 287 288 289 290 291
290 290 290 290 290 288 286 286 286 285 284 284 285 285 284 284 284 283 282 281 281 281 281 281 281 281 281 280 280 280 281 281 282 282 282 282 281 281 280 279 277 275 274 273 273 272 271 271 271 271 271 271 271 272 273 274 275 277 278 279 280 280 281 281 282 282 283 284 284 285 285 285 285 285 285 286 286 286 286 286 286 286 287 288 290 291 291